Content
SEND FEEDBACK

Daily
Averages
Monthly
Summary
Canada

BEACONSFIELD, QUEBEC


Home > North America > Canada > Quebec
Elevation: 118 feet     Latitude: 45 28N     Longitude: 073 45W

WEATHER
 
SELECT A DAY
Number of Records: 198,587;   Date Range: 1/1/95 - 8/31/14
 
SHARE

PRINT THIS DATA

[ ← Previous Day ]
WEATHER ALMANAC - MARCH 12, 2013
[ Next Day → ]
[ °C ]   °F
Weather ElementAverageHighLow
Temperature40.6 °F45 °F (8:00 am)35.6 °F (6:41 pm)
Dewpoint38.6 °F42.8 °F (7:51 am)33.8 °F (6:22 pm)
Humidity92.4 %100 % (10:27 am)71 % (1:00 am)
Barometer29.80 in29.83 in (1:00 am)29.77 in (7:51 am)
Wind Speed10.8 mph18.4 mph (3:00 am)
Wind Gust23 mph (6:22 pm)
Weather ElementAverage
Visibility6.7 mi
Wind DirectionSSW (209.5 °)

Weather ElementTotal
Precipitation---
Heating Degree Days24.7 (Base 65)
Averaged from 41 records on March 12, 2013
WEATHER CONDITIONS BREAKOUT
WIND DIRECTION BREAKOUT
WEATHER BY HOUR - MARCH 12, 2013
[ °C ]   °F
Local TimeTemperatureDewpointHumidityBarometerVisibilityWind DirectionWind SpeedGust SpeedPrecipitationEventsConditions
1:00 AM44.6 °F35.6 °F71 %29.83 in8.0 miSE (140°)11.5 mph19.6 mphRainLight Rain
2:00 AM42.0 °F37.0 °F76 %29.82 in7.0 miSE (130°)15.0 mphRainLight Rain
2:00 AM42.8 °F37.4 °F81 %29.82 in8.0 miSE (130°)16.1 mphRainLight Rain
3:00 AM42.8 °F39.2 °F87 %29.81 in6.0 miSSE (150°)18.4 mphRainLight Rain
4:00 AM42.8 °F39.2 °F87 %29.79 in6.0 miSE (140°)13.8 mphRainLight Rain
5:00 AM42.8 °F41.0 °F93 %29.78 in8.0 miSSE (150°)11.5 mphRainLight Rain
6:00 AM42.8 °F41.0 °F93 %29.78 in6.0 miSE (140°)11.5 mphRainLight Rain
7:00 AM44.6 °F41.0 °F87 %29.78 in10.0 miSE (140°)13.8 mphOvercast
7:51 AM44.6 °F42.8 °F93 %29.77 in8.0 miSSE (150°)13.8 mph20.7 mphRainLight Rain
8:00 AM44.6 °F42.8 °F93 %29.77 in8.0 miSSE (150°)13.8 mphRainLight Rain
8:00 AM45.0 °F42.0 °F86 %29.78 in7.0 miSSE (150°)13.8 mphRainLight Rain
9:00 AM44.6 °F42.8 °F93 %29.79 in7.0 miSouth (190°)9.2 mphRainLight Rain
9:44 AM44.6 °F42.8 °F93 %29.80 in3.0 miSouth (180°)8.1 mphRainLight Rain
10:00 AM44.6 °F42.8 °F93 %29.80 in2.0 miSouth (180°)10.4 mphRainLight Rain
10:27 AM41.0 °F41.0 °F100 %29.81 in1.5 miWSW (240°)8.1 mphLight Drizzle
10:42 AM42.8 °F42.8 °F100 %29.81 in3.0 miSW (220°)10.4 mphLight Drizzle
11:00 AM42.8 °F42.8 °F100 %29.81 in6.0 miSW (220°)10.4 mphLight Drizzle
11:14 AM42.8 °F41.0 °F93 %29.81 in4.0 miSW (230°)8.1 mphRainLight Rain
11:30 AM41.0 °F41.0 °F100 %29.81 in4.0 miWest (270°)5.8 mphRainLight Rain
11:50 AM42.8 °F42.8 °F100 %29.81 in10.0 miWNW (290°)2.3 mphRainLight Rain
12:00 PM41.0 °F41.0 °F100 %29.81 in10.0 miWSW (250°)8.1 mphRainLight Rain
1:00 PM41.0 °F39.2 °F93 %29.81 in3.0 miSW (230°)11.5 mphRainLight Rain
1:21 PM41.0 °F39.2 °F93 %29.81 in3.0 miWSW (250°)12.7 mphRainLight Rain
2:00 PM40.0 °F39.0 °F94 %29.80 in5.0 miWSW (240°)11.5 mphRainLight Rain
2:00 PM41.0 °F39.2 °F93 %29.80 in5.0 miWSW (240°)11.5 mph17.3 mphRainLight Rain
3:00 PM39.2 °F39.2 °F100 %29.78 in6.0 miSW (230°)9.2 mphRainLight Rain
3:25 PM39.2 °F37.4 °F93 %29.77 in7.0 miSW (220°)8.1 mphRainLight Rain
4:00 PM39.2 °F37.4 °F93 %29.77 in8.0 miSW (230°)8.1 mphRainLight Rain
5:00 PM37.4 °F37.4 °F100 %29.77 in8.0 miSW (230°)8.1 mphRainLight Rain
5:25 PM39.2 °F37.4 °F93 %29.77 in7.0 miSW (230°)6.9 mphRainLight Rain
5:46 PM39.2 °F35.6 °F87 %29.77 in8.0 miWSW (240°)10.4 mphRainLight Rain
6:00 PM37.4 °F35.6 °F93 %29.77 in8.0 miWest (260°)13.8 mphRainLight Rain
6:22 PM37.4 °F33.8 °F87 %29.78 in8.0 miWest (260°)16.1 mph23.0 mphRainLight Rain
6:41 PM35.6 °F33.8 °F93 %29.79 in8.0 miWSW (250°)12.7 mphRainLight Rain
7:00 PM35.6 °F33.8 °F93 %29.79 in8.0 miWSW (250°)9.2 mphRainLight Rain
8:00 PM36.0 °F34.0 °F91 %29.80 in7.0 miWSW (240°)11.5 mphRainLight Rain
8:00 PM35.6 °F33.8 °F93 %29.80 in8.0 miWSW (240°)13.8 mphRainLight Rain
9:00 PM35.6 °F33.8 °F93 %29.80 in6.0 miWSW (240°)9.2 mphRainLight Rain
10:00 PM35.6 °F35.6 °F100 %29.81 in8.0 miSW (220°)6.9 mphRainLight Rain
10:33 PM35.6 °F33.8 °F93 %29.81 in8.0 miSW (230°)8.1 mphOvercast
11:00 PM35.6 °F33.8 °F93 %29.81 in15.0 miSW (220°)11.5 mphOvercast
Hourly data recorded from CYUL, located miles away from Beaconsfield, Quebec







STORIES FROM OUR PARTNERS